Regional Weather Roundup
Issued by NWS

Home | Current Version | Previous Version | Text Only | Print | Product List | Glossary On
Versions: 1 2 3 4 5 6 7 8 9 10 11 12 13 14 15 16 17 18 19 20 21 22 23 24 25 26 27 28 29 30 31 32 33 34 35 36 37 38 39 40 41 42 43 44 45 46 47 48 49 50
192
ASUS43 KOAX 221110
RWRNE

WEATHER ROUNDUP FOR NEBRASKA
NATIONAL WEATHER SERVICE OMAHA NE
600 AM CDT MON MAY 22 2017

NOTES: SATELLITE DATA IS BEING USED TO AUGMENT CLOUD COVER ABOVE
       12000 FEET.
       "FAIR" INDICATES FEW OR NO CLOUDS BELOW 12,000 FEET WITH NO
       SIGNIFICANT WEATHER AND/OR OBSTRUCTIONS TO VISIBILITY.

  * THESE STATIONS DO NOT REPORT WEATHER SUCH AS RAIN...SNOW OR FOG.

NEZ001>004-019>022-054>056-221200-
NEBRASKA PANHANDLE

CITY           SKY/WX    TMP DP  RH WIND       PRES   REMARKS
SCOTTSBLUFF    CLEAR     38  32  79 NW7       30.12F WCI  33
ALLIANCE       CLEAR     33  32  96 W8        30.08F WCI  26
CHADRON        CLEAR     40  37  89 W8        30.05F WCI  34
GORDON         FAIR      40  37  87 W7        30.04F
KIMBALL        CLEAR     39  36  90 W8        30.15F WCI  33
SIDNEY         CLEAR     37  35  92 W10       30.13F WCI  30
$$

NEZ057>060-069>072-079>082-221200-
SOUTHWEST NEBRASKA

CITY           SKY/WX    TMP DP  RH WIND       PRES   REMARKS
NORTH PLATTE   CLOUDY    43  42  97 SW5       30.07S
IMPERIAL       CLEAR     48  43  82 W9        30.10F
LEXINGTON      MOCLDY    49  46  87 W7        30.06S
MCCOOK         CLOUDY    50  49  96 W7        30.08F
OGALLALA       CLOUDY    41  40  93 W8        30.08F
$$

NEZ005>010-023>029-035>040-094-221200-
NORTH CENTRAL NEBRASKA

CITY           SKY/WX    TMP DP  RH WIND       PRES   REMARKS
VALENTINE      CLEAR     43  38  82 W7        30.01F
AINSWORTH      CLEAR     44  42  93 W8        30.00F
BROKEN BOW     CLOUDY    44  41  89 CALM      30.02F
O`NEILL        CLEAR     48  42  80 W9        29.97F
ORD            CLOUDY    46  41  82 SW3       30.00F
THEDFORD       CLEAR     41  40  93 W5        30.04F
$$

NEZ041-046>049-061>064-073>077-083>087-221200-
SOUTH CENTRAL NEBRASKA

CITY           SKY/WX    TMP DP  RH WIND       PRES   REMARKS
GRAND ISLAND   PTCLDY    52  48  86 W8        30.03S
AURORA         PTCLDY    52  47  84 W7        30.01F
HASTINGS       MOCLDY    54  46  74 W12       30.04S
HEBRON         CLOUDY    57  53  87 W8        30.03S
HOLDREGE       CLOUDY    54  46  75 W10       30.05F
KEARNEY *      CLOUDY    54  45  71 W7        30.06S
YORK           MOCLDY    52  48  87 W8        30.01F
$$

NEZ011>018-030>034-042>045-221200-
NORTHEAST NEBRASKA

CITY           SKY/WX    TMP DP  RH WIND       PRES   REMARKS
NORFOLK        CLEAR     48  43  82 SW9       29.96S
ALBION         CLOUDY    49  44  81 NW3       29.99F
BLAIR          MOCLDY    55  48  75 SW12      29.96S
FREMONT        PTCLDY    53  46  76 SW7       29.97S
TEKAMAH        PTCLDY    51  44  77 SW5       29.95F
WAYNE          CLEAR     46  45  97 S5        29.94S
$$

NEZ050>053-065>068-078-088>093-221200-
SOUTHEAST NEBRASKA

CITY           SKY/WX    TMP DP  RH WIND       PRES   REMARKS
LINCOLN        CLOUDY    58  51  78 SW10      30.00F
OMAHA EPPLEY   MOCLDY    53  45  74 SE10      29.97F
BEATRICE       CLOUDY    58  54  86 SW3       30.01F
FALLS CITY     CLOUDY    55  48  77 SW7       30.04R
NEBRASKA CITY  MOCLDY    57  45  64 SW12      30.01F
PLATTSMOUTH    CLOUDY    55  45  68 S14       29.98F
$$

NEZ044-045-051>053-067-221200-
OMAHA AREA

CITY           SKY/WX    TMP DP  RH WIND       PRES   REMARKS
OMAHA EPPLEY   MOCLDY    53  45  74 SE10      29.97F
BLAIR          MOCLDY    55  48  75 SW12      29.96S
FREMONT        PTCLDY    53  46  76 SW7       29.97S
MILLARD        PTCLDY    57  50  76 SW5       29.98S
OFFUTT AFB     MOCLDY    52  47  82 VRB5      29.98F
PLATTSMOUTH    CLOUDY    55  45  68 S14       29.98F
WAHOO          FAIR      54  47  78 SW10      29.97S
$$




USA.gov is the U.S. government's official web portal to all federal, state and local government web resources and services.